Regional Weather Roundup
Issued by NWS

Home | Current Version | Previous Version | Text Only | Print | Product List | Glossary On
Versions: 1 2 3 4 5 6 7 8 9 10 11 12 13 14 15 16 17 18 19 20 21 22 23 24 25 26 27 28 29 30 31 32 33 34 35 36 37 38 39 40 41 42 43 44 45 46 47 48 49 50
000
ASUS42 KFFC 240110
RWRGA
WEATHER ROUNDUP FOR GEORGIA
NATIONAL WEATHER SERVICE PEACHTREE CITY GA
900 PM EDT THU MAR 23 2017

NOTE: "FAIR" INDICATES FEW OR NO CLOUDS BELOW 12,000 FEET WITH NO
SIGNIFICANT WEATHER AND/OR OBSTRUCTIONS TO VISIBILITY.

* = USE WITH CAUTION. THE STATIONS MARKED WITH AN ASTERISK MAY NOT
REPORT WEATHER SUCH AS PRECIPITATION, FOG, OR THUNDER AND ARE NOT
QUALITY CONTROLLED BY NWS.

THE REMARK "TC" DENOTES TEMPERATURE READING IN DEGREES CELSIUS.

GAZ001>058-240200-
NORTH GEORGIA

CITY           SKY/WX    TMP DP  RH WIND       PRES   REMARKS
ATLANTA        MOCLDY    61  38  42 SE12G18   30.39R
ATHENS         CLOUDY    56  41  57 E5        30.42R
CHAMBLEE       CLOUDY    60  35  39 MISG      30.39R
PEACHTREE CITY CLOUDY    61  42  49 SE9       30.38R
ROME           CLOUDY    62  39  42 E6        30.34S
WEST ATLANTA   CLOUDY    61  35  37 E6        30.38R
GAINESVILLE    CLOUDY    57  35  43 E7        30.43R
CARTERSVILLE   CLOUDY    60  37  42 VRB3      30.38R


CITY           SKY/WX    TMP DP  RH WIND       PRES   REMARKS
DALTON*        CLEAR     57  36  44 SE9       30.36S
LAWRENCEVILLE* MOCLDY    57  36  44 E9        30.41R
MARIETTA       CLOUDY    60  36  41 E10       30.38R
KENNESAW*      CLOUDY    59  36  41 SE10G16   30.39R
CANTON*        CLOUDY    59  27  29 E5        30.40S
$$

GAZ059>098-102>109-240200-
CENTRAL GEORGIA

CITY           SKY/WX    TMP DP  RH WIND       PRES   REMARKS
AUGUSTA-BUSH   CLEAR     58  36  43 E3        30.43R
AUGUSTA-DANIEL CLEAR     60  31  33 E7        30.44R
COLUMBUS       CLOUDY    65  47  52 SE7       30.36R
MACON          CLOUDY    63  47  55 SE8       30.39R
ROBINS AFB     CLOUDY    64  48  56 SE7       30.38S


CITY           SKY/WX    TMP DP  RH WIND       PRES   REMARKS
LAGRANGE*      CLOUDY    64  50  61 SE6       30.36S
SYLVANIA*      PTCLDY   N/A N/A N/A SE3       30.45R
MILLEDGEVILLE* CLOUDY    63  45  51 CALM      30.40R
$$

GAZ099>101-110>166-240200-
SOUTH GEORGIA

CITY           SKY/WX    TMP DP  RH WIND       PRES   REMARKS
SAVANNAH       CLEAR     55  45  68 E8        30.46R
VALDOSTA       CLEAR     62  52  69 E8        30.37R
ALMA           PTCLDY    60  48  64 E7        30.41R
ST SIMONS      CLOUDY    60  54  80 NE14G21   30.42R
FT STEWART     CLEAR     55  48  75 E7        30.42R
ALBANY         CLOUDY    66  53  63 E9        30.38R
HUNTER AFB     CLEAR     55  50  83 E7        30.43S
MOODY AFB      CLEAR     62  51  68 E12       30.36R
BRUNSWICK      CLOUDY    59  55  88 NE13G21   30.43S


CITY           SKY/WX    TMP DP  RH WIND       PRES   REMARKS
BAINBRIDGE*    PTCLDY    66  54  63 E9        30.33S
MOULTRIE*      CLEAR     63  52  67 E3        30.37R
VIDALIA*       PTCLDY    61  43  51 E12G18    30.42R
WAYCROSS*      PTCLDY    61  55  80 E8        30.42R
DOUGLAS*       MOCLDY    61  46  59 E9        30.41S
$$




USA.gov is the U.S. government's official web portal to all federal, state and local government web resources and services.